Terug naar catalogus

STARLINK-34979

ActiefCommunicatieSSO
NORAD 65254·PAYLOAD·🇺🇸 United States

Gelanceerd Aug 18, 2025 vanaf Vandenberg Space Force Base

Loading…

Volgende Passages (komende 24 uur)

TLE

VersSource: CelesTrak SupGP

Epoch: Sep 14, 2026, 22:29 UTC

1 65254C 25179V   26257.93729167  .00043063  00000+0  13371-2 0  2571
2 65254  97.2826 297.3838 0001258 110.4486 247.7957 15.33408871    10

Volg STARLINK-34979 in realtime met AllMySat

Download on the App Store